Time,TemperatureF,DewpointF,PressureIn,WindDirection,WindDirectionDegrees,WindSpeedMPH,WindSpeedGustMPH,Humidity,HourlyPrecipIn,Conditions,Clouds,dailyrainin,SolarRadiationWatts/m^2,SoftwareType,DateUTC
2013-05-17 00:02:00,66.0,57.9,29.93,East,79,0.0,2.0,75,0.00,,,0.00,0.0,meteohub,2013-05-17 04:02:00,
2013-05-17 00:07:00,65.8,57.7,29.93,East,100,0.0,2.0,75,0.00,,,0.00,0.0,meteohub,2013-05-17 04:07:00,
2013-05-17 00:11:00,65.8,57.7,29.93,East,86,0.0,2.0,75,0.00,,,0.00,0.0,meteohub,2013-05-17 04:11:00,
2013-05-17 00:12:00,65.8,57.7,29.93,South,177,4.0,4.0,75,0.00,,,0.00,0.0,meteohub,2013-05-17 04:12:00,
2013-05-17 00:17:00,65.7,57.9,29.93,SSE,154,0.0,4.0,76,0.00,,,0.00,0.0,meteohub,2013-05-17 04:17:00,
2013-05-17 00:22:00,65.7,57.9,29.93,SE,138,0.0,4.0,76,0.00,,,0.00,0.0,meteohub,2013-05-17 04:22:00,
2013-05-17 00:26:00,65.5,57.7,29.93,NNE,14,0.0,4.0,76,0.00,,,0.00,0.0,meteohub,2013-05-17 04:26:00,
2013-05-17 00:32:00,65.5,58.1,29.93,ENE,70,0.0,4.0,77,0.00,,,0.00,0.0,meteohub,2013-05-17 04:32:00,
2013-05-17 00:37:00,65.5,58.1,29.93,ENE,71,0.0,4.0,77,0.00,,,0.00,0.0,meteohub,2013-05-17 04:37:00,
2013-05-17 00:42:00,65.3,57.9,29.93,ENE,57,0.0,4.0,77,0.00,,,0.00,0.0,meteohub,2013-05-17 04:42:00,
2013-05-17 00:47:00,65.1,57.7,29.93,SSE,152,0.0,1.0,77,0.00,,,0.00,0.0,meteohub,2013-05-17 04:47:00,
2013-05-17 00:52:00,64.9,57.9,29.93,NE,35,1.0,2.0,78,0.00,,,0.00,0.0,meteohub,2013-05-17 04:52:00,
2013-05-17 00:57:00,65.1,58.1,29.93,ENE,65,0.0,4.0,78,0.00,,,0.00,0.0,meteohub,2013-05-17 04:57:00,
2013-05-17 01:02:00,65.1,58.1,29.92,ENE,65,0.0,4.0,78,0.00,,,0.00,0.0,meteohub,2013-05-17 05:02:00,
2013-05-17 01:07:00,65.1,58.1,29.92,ENE,72,0.0,4.0,78,0.00,,,0.00,0.0,meteohub,2013-05-17 05:07:00,
2013-05-17 01:12:00,65.1,58.5,29.92,ESE,107,0.0,4.0,79,0.00,,,0.00,0.0,meteohub,2013-05-17 05:12:00,
2013-05-17 01:17:00,65.1,58.5,29.92,SE,132,1.0,2.0,79,0.00,,,0.00,0.0,meteohub,2013-05-17 05:17:00,
2013-05-17 01:22:00,64.9,58.3,29.92,ENE,64,0.0,2.0,79,0.00,,,0.00,0.0,meteohub,2013-05-17 05:22:00,
2013-05-17 01:27:00,64.9,58.3,29.92,NE,53,0.0,2.0,79,0.00,,,0.00,0.0,meteohub,2013-05-17 05:27:00,
2013-05-17 01:32:00,65.1,58.5,29.92,ENE,69,0.0,3.0,79,0.00,,,0.00,0.0,meteohub,2013-05-17 05:32:00,
2013-05-17 01:37:00,65.1,58.1,29.91,East,87,0.0,4.0,78,0.00,,,0.00,0.0,meteohub,2013-05-17 05:37:00,
2013-05-17 01:42:00,65.1,58.1,29.91,NNW,340,0.0,11.0,78,0.00,,,0.00,0.0,meteohub,2013-05-17 05:42:00,
2013-05-17 01:47:00,65.1,58.1,29.91,East,92,0.0,11.0,78,0.00,,,0.00,0.0,meteohub,2013-05-17 05:47:00,
2013-05-17 01:52:00,64.9,57.9,29.91,ESE,103,0.0,11.0,78,0.00,,,0.00,0.0,meteohub,2013-05-17 05:52:00,
2013-05-17 01:57:00,64.9,57.9,29.91,ESE,118,0.0,2.0,78,0.00,,,0.00,0.0,meteohub,2013-05-17 05:57:00,
2013-05-17 02:02:00,64.9,58.3,29.91,NE,44,0.0,2.0,79,0.00,,,0.00,0.0,meteohub,2013-05-17 06:02:00,
2013-05-17 02:07:00,64.8,58.1,29.91,NW,322,1.0,3.0,79,0.00,,,0.00,0.0,meteohub,2013-05-17 06:07:00,
2013-05-17 02:12:00,64.8,58.1,29.91,NE,36,0.0,3.0,79,0.00,,,0.00,0.0,meteohub,2013-05-17 06:12:00,
2013-05-17 02:17:00,64.6,57.9,29.91,NE,36,0.0,3.0,79,0.00,,,0.00,0.0,meteohub,2013-05-17 06:17:00,
2013-05-17 02:22:00,64.6,57.9,29.91,NE,42,0.0,3.0,79,0.00,,,0.00,0.0,meteohub,2013-05-17 06:22:00,
2013-05-17 02:27:00,64.4,58.1,29.91,NE,42,0.0,3.0,80,0.00,,,0.00,0.0,meteohub,2013-05-17 06:27:00,
2013-05-17 02:32:00,64.4,57.7,29.91,NE,42,0.0,2.0,79,0.00,,,0.00,0.0,meteohub,2013-05-17 06:32:00,
2013-05-17 02:37:00,64.4,57.7,29.91,NE,42,1.0,2.0,79,0.00,,,0.00,0.0,meteohub,2013-05-17 06:37:00,
2013-05-17 02:42:00,64.4,57.7,29.91,NE,41,0.0,2.0,79,0.00,,,0.00,0.0,meteohub,2013-05-17 06:42:00,
2013-05-17 02:47:00,64.2,57.2,29.91,SW,230,0.0,1.0,78,0.00,,,0.00,0.0,meteohub,2013-05-17 06:47:00,
2013-05-17 02:52:00,64.4,57.0,29.91,ENE,61,0.0,1.0,77,0.00,,,0.00,0.0,meteohub,2013-05-17 06:52:00,
2013-05-17 02:57:00,64.6,57.2,29.91,North,10,0.0,1.0,77,0.00,,,0.00,0.0,meteohub,2013-05-17 06:57:00,
2013-05-17 03:02:00,64.6,57.2,29.91,SSW,206,1.0,4.0,77,0.00,,,0.00,0.0,meteohub,2013-05-17 07:02:00,
2013-05-17 03:07:00,64.6,57.2,29.91,WNW,287,0.0,4.0,77,0.00,,,0.00,0.0,meteohub,2013-05-17 07:07:00,
2013-05-17 03:12:00,64.8,57.4,29.91,North,10,0.0,4.0,77,0.00,,,0.00,0.0,meteohub,2013-05-17 07:12:00,
2013-05-17 03:17:00,64.6,57.6,29.91,North,9,0.0,4.0,78,0.00,,,0.00,0.0,meteohub,2013-05-17 07:17:00,
2013-05-17 03:22:00,64.4,57.7,29.91,NE,52,0.0,4.0,79,0.00,,,0.00,0.0,meteohub,2013-05-17 07:22:00,
2013-05-17 03:27:00,64.0,57.7,29.91,NE,52,0.0,2.0,80,0.00,,,0.00,0.0,meteohub,2013-05-17 07:27:00,
2013-05-17 03:32:00,63.9,57.6,29.91,North,355,0.0,3.0,80,0.00,,,0.00,0.0,meteohub,2013-05-17 07:32:00,
2013-05-17 03:37:00,63.7,57.7,29.91,NW,309,1.0,3.0,81,0.00,,,0.00,0.0,meteohub,2013-05-17 07:37:00,
2013-05-17 03:42:00,63.7,57.4,29.91,North,355,0.0,3.0,80,0.00,,,0.00,0.0,meteohub,2013-05-17 07:42:00,
2013-05-17 03:47:00,63.7,57.4,29.91,North,355,0.0,2.0,80,0.00,,,0.00,0.0,meteohub,2013-05-17 07:47:00,
2013-05-17 03:52:00,63.5,57.2,29.91,NE,50,0.0,2.0,80,0.00,,,0.00,0.0,meteohub,2013-05-17 07:52:00,
2013-05-17 03:57:00,63.5,57.6,29.92,NE,44,0.0,2.0,81,0.00,,,0.00,0.0,meteohub,2013-05-17 07:57:00,
2013-05-17 04:02:00,63.3,57.4,29.92,NE,45,0.0,2.0,81,0.00,,,0.00,0.0,meteohub,2013-05-17 08:02:00,
2013-05-17 04:07:00,63.1,57.2,29.92,NE,45,0.0,1.0,81,0.00,,,0.00,0.0,meteohub,2013-05-17 08:07:00,
2013-05-17 04:12:00,63.1,57.2,29.92,NE,40,0.0,2.0,81,0.00,,,0.00,0.0,meteohub,2013-05-17 08:12:00,
2013-05-17 04:17:00,63.3,57.4,29.92,NNW,337,0.0,2.0,81,0.00,,,0.00,0.0,meteohub,2013-05-17 08:17:00,
2013-05-17 04:22:00,63.3,57.0,29.92,North,355,0.0,2.0,80,0.00,,,0.00,0.0,meteohub,2013-05-17 08:22:00,
2013-05-17 04:27:00,63.3,57.0,29.92,North,355,0.0,2.0,80,0.00,,,0.00,0.0,meteohub,2013-05-17 08:27:00,
2013-05-17 04:32:00,63.3,57.4,29.92,North,351,1.0,2.0,81,0.00,,,0.00,0.0,meteohub,2013-05-17 08:32:00,
2013-05-17 04:37:00,63.3,57.4,29.92,North,355,0.0,2.0,81,0.00,,,0.00,0.0,meteohub,2013-05-17 08:37:00,
2013-05-17 04:42:00,63.1,57.2,29.92,North,5,0.0,2.0,81,0.00,,,0.00,0.0,meteohub,2013-05-17 08:42:00,
2013-05-17 04:47:00,63.0,57.0,29.92,NNE,18,0.0,2.0,81,0.00,,,0.00,0.0,meteohub,2013-05-17 08:47:00,
2013-05-17 04:52:00,63.0,57.4,29.92,NNE,18,0.0,3.0,82,0.00,,,0.00,0.0,meteohub,2013-05-17 08:52:00,
2013-05-17 04:57:00,62.6,57.0,29.93,NNE,18,0.0,3.0,82,0.00,,,0.00,0.0,meteohub,2013-05-17 08:57:00,
2013-05-17 05:02:00,62.4,56.8,29.93,NNE,16,1.0,3.0,82,0.00,,,0.00,0.0,meteohub,2013-05-17 09:02:00,
2013-05-17 05:07:00,62.2,57.0,29.93,NNE,16,0.0,2.0,83,0.00,,,0.00,0.0,meteohub,2013-05-17 09:07:00,
2013-05-17 05:12:00,62.2,57.0,29.93,NNE,16,0.0,2.0,83,0.00,,,0.00,0.0,meteohub,2013-05-17 09:12:00,
2013-05-17 05:17:00,62.1,57.2,29.93,NNE,16,0.0,2.0,84,0.00,,,0.00,0.0,meteohub,2013-05-17 09:17:00,
2013-05-17 05:22:00,62.1,57.2,29.93,NNE,16,0.0,1.0,84,0.00,,,0.00,0.0,meteohub,2013-05-17 09:22:00,
2013-05-17 05:27:00,61.9,57.0,29.94,NNE,16,1.0,1.0,84,0.00,,,0.00,0.0,meteohub,2013-05-17 09:27:00,
2013-05-17 05:32:00,61.9,57.0,29.93,NNE,16,1.0,1.0,84,0.00,,,0.00,0.0,meteohub,2013-05-17 09:32:00,
2013-05-17 05:37:00,61.9,57.0,29.94,NNE,16,0.0,1.0,84,0.00,,,0.00,0.0,meteohub,2013-05-17 09:37:00,
2013-05-17 05:42:00,61.9,56.7,29.94,NNE,16,1.0,2.0,83,0.00,,,0.00,0.0,meteohub,2013-05-17 09:42:00,
2013-05-17 05:47:00,62.1,56.8,29.94,NNE,16,2.0,3.0,83,0.00,,,0.00,0.0,meteohub,2013-05-17 09:47:00,
2013-05-17 05:52:00,62.1,56.8,29.94,North,5,2.0,3.0,83,0.00,,,0.00,0.0,meteohub,2013-05-17 09:52:00,
2013-05-17 05:57:00,62.1,56.8,29.94,North,5,2.0,3.0,83,0.00,,,0.00,0.0,meteohub,2013-05-17 09:57:00,
2013-05-17 06:02:00,62.1,56.5,29.94,North,5,0.0,3.0,82,0.00,,,0.00,0.0,meteohub,2013-05-17 10:02:00,
2013-05-17 06:07:00,62.4,56.1,29.94,North,5,2.0,3.0,80,0.00,,,0.00,0.0,meteohub,2013-05-17 10:07:00,
2013-05-17 06:12:00,62.8,56.5,29.94,North,5,2.0,4.0,80,0.00,,,0.00,0.0,meteohub,2013-05-17 10:12:00,
2013-05-17 06:17:00,63.0,55.9,29.94,North,5,3.0,4.0,78,0.00,,,0.00,0.0,meteohub,2013-05-17 10:17:00,
2013-05-17 06:22:00,63.0,55.2,29.94,North,5,4.0,8.0,76,0.00,,,0.00,0.0,meteohub,2013-05-17 10:22:00,
2013-05-17 06:27:00,63.1,54.7,29.94,North,9,3.0,8.0,74,0.00,,,0.00,0.0,meteohub,2013-05-17 10:27:00,
2013-05-17 06:32:00,63.3,55.2,29.95,North,5,3.0,8.0,75,0.00,,,0.00,7.0,meteohub,2013-05-17 10:32:00,
2013-05-17 06:37:00,63.5,55.4,29.95,North,0,2.0,4.0,75,0.00,,,0.00,12.0,meteohub,2013-05-17 10:37:00,
2013-05-17 06:42:00,63.5,55.0,29.95,North,5,3.0,4.0,74,0.00,,,0.00,16.0,meteohub,2013-05-17 10:42:00,
2013-05-17 06:47:00,63.7,54.9,29.96,North,9,0.0,4.0,73,0.00,,,0.00,21.0,meteohub,2013-05-17 10:47:00,
2013-05-17 06:52:00,63.9,55.0,29.96,North,5,4.0,4.0,73,0.00,,,0.00,30.0,meteohub,2013-05-17 10:52:00,
2013-05-17 06:57:00,64.0,55.2,29.96,North,5,1.0,6.0,73,0.00,,,0.00,35.0,meteohub,2013-05-17 10:57:00,
2013-05-17 07:02:00,64.2,55.0,29.96,North,10,1.0,6.0,72,0.00,,,0.00,47.0,meteohub,2013-05-17 11:02:00,
2013-05-17 07:07:00,64.2,54.7,29.96,North,5,2.0,6.0,71,0.00,,,0.00,33.0,meteohub,2013-05-17 11:07:00,
2013-05-17 07:12:00,64.4,54.9,29.96,North,5,4.0,5.0,71,0.00,,,0.00,35.0,meteohub,2013-05-17 11:12:00,
2013-05-17 07:17:00,64.2,54.7,29.96,NNE,13,2.0,5.0,71,0.00,,,0.00,37.0,meteohub,2013-05-17 11:17:00,
2013-05-17 07:22:00,64.2,54.7,29.96,North,9,5.0,5.0,71,0.00,,,0.00,42.0,meteohub,2013-05-17 11:22:00,
2013-05-17 07:27:00,64.0,55.2,29.96,North,5,3.0,5.0,73,0.00,,,0.00,53.0,meteohub,2013-05-17 11:27:00,
2013-05-17 07:32:00,64.0,54.9,29.96,North,10,2.0,8.0,72,0.00,,,0.00,60.0,meteohub,2013-05-17 11:32:00,
2013-05-17 07:37:00,64.0,55.2,29.97,North,5,2.0,8.0,73,0.00,,,0.00,67.0,meteohub,2013-05-17 11:37:00,
2013-05-17 07:42:00,64.0,55.2,29.97,North,0,3.0,5.0,73,0.00,,,0.00,72.0,meteohub,2013-05-17 11:42:00,
2013-05-17 07:47:00,64.2,55.4,29.97,North,5,3.0,5.0,73,0.00,,,0.00,77.0,meteohub,2013-05-17 11:47:00,
2013-05-17 07:52:00,64.6,55.4,29.97,NE,47,0.0,5.0,72,0.00,,,0.00,84.0,meteohub,2013-05-17 11:52:00,
2013-05-17 07:57:00,64.6,55.4,29.97,North,5,2.0,4.0,72,0.00,,,0.00,95.0,meteohub,2013-05-17 11:57:00,
2013-05-17 08:02:00,64.6,55.8,29.97,North,355,2.0,6.0,73,0.00,,,0.00,104.0,meteohub,2013-05-17 12:02:00,
2013-05-17 08:07:00,64.4,55.9,29.98,North,5,2.0,6.0,74,0.00,,,0.00,100.0,meteohub,2013-05-17 12:07:00,
2013-05-17 08:12:00,64.4,55.6,29.98,North,11,4.0,5.0,73,0.00,,,0.00,83.0,meteohub,2013-05-17 12:12:00,
2013-05-17 08:17:00,64.2,55.4,29.98,North,0,5.0,5.0,73,0.00,,,0.00,54.0,meteohub,2013-05-17 12:17:00,
2013-05-17 08:22:00,64.2,55.4,29.98,North,5,1.0,5.0,73,0.00,,,0.00,49.0,meteohub,2013-05-17 12:22:00,
2013-05-17 08:27:00,64.2,55.4,29.98,North,5,3.0,5.0,73,0.00,,,0.00,60.0,meteohub,2013-05-17 12:27:00,
2013-05-17 08:32:00,64.4,55.9,29.98,North,355,1.0,5.0,74,0.00,,,0.00,315.0,meteohub,2013-05-17 12:32:00,
2013-05-17 08:37:00,65.1,56.3,29.98,North,0,3.0,5.0,73,0.00,,,0.00,366.0,meteohub,2013-05-17 12:37:00,
2013-05-17 08:42:00,66.2,56.5,29.98,North,355,3.0,5.0,71,0.00,,,0.00,278.0,meteohub,2013-05-17 12:42:00,
2013-05-17 08:47:00,67.3,57.2,29.98,North,0,0.0,4.0,70,0.00,,,0.00,199.0,meteohub,2013-05-17 12:47:00,
2013-05-17 08:52:00,68.2,57.2,29.99,SW,223,2.0,4.0,68,0.00,,,0.00,243.0,meteohub,2013-05-17 12:52:00,
2013-05-17 08:57:00,69.1,57.2,29.99,SW,234,1.0,4.0,66,0.00,,,0.00,250.0,meteohub,2013-05-17 12:57:00,
2013-05-17 09:02:00,69.3,56.5,29.99,SSW,202,2.0,3.0,64,0.00,,,0.00,244.0,meteohub,2013-05-17 13:02:00,
2013-05-17 09:07:00,69.4,57.6,29.99,SSW,199,0.0,3.0,66,0.00,,,0.00,223.0,meteohub,2013-05-17 13:07:00,
2013-05-17 09:12:00,69.4,57.2,29.99,South,170,0.0,3.0,65,0.00,,,0.00,234.0,meteohub,2013-05-17 13:12:00,
2013-05-17 09:17:00,69.4,56.7,29.99,SSW,205,0.0,3.0,64,0.00,,,0.00,218.0,meteohub,2013-05-17 13:17:00,
2013-05-17 09:22:00,69.3,56.5,29.99,SW,223,1.0,4.0,64,0.00,,,0.00,195.0,meteohub,2013-05-17 13:22:00,
2013-05-17 09:27:00,69.3,57.0,29.99,WNW,301,0.0,4.0,65,0.00,,,0.00,195.0,meteohub,2013-05-17 13:27:00,
2013-05-17 09:32:00,69.3,56.5,29.99,North,355,0.0,4.0,64,0.00,,,0.00,265.0,meteohub,2013-05-17 13:32:00,
2013-05-17 09:37:00,69.6,56.8,29.99,North,9,1.0,2.0,64,0.00,,,0.00,257.0,meteohub,2013-05-17 13:37:00,
2013-05-17 09:42:00,70.3,58.1,29.99,NNE,14,0.0,4.0,65,0.00,,,0.00,288.0,meteohub,2013-05-17 13:42:00,
2013-05-17 09:47:00,70.9,59.0,29.99,NNE,19,0.0,4.0,66,0.00,,,0.00,276.0,meteohub,2013-05-17 13:47:00,
2013-05-17 09:52:00,71.1,57.4,29.99,NNW,331,2.0,2.0,62,0.00,,,0.00,381.0,meteohub,2013-05-17 13:52:00,
2013-05-17 09:57:00,71.1,56.5,29.99,ENE,61,0.0,3.0,60,0.00,,,0.00,330.0,meteohub,2013-05-17 13:57:00,
2013-05-17 10:02:00,70.9,56.3,29.99,North,355,0.0,3.0,60,0.00,,,0.00,510.0,meteohub,2013-05-17 14:02:00,
2013-05-17 10:07:00,70.9,56.8,29.99,North,355,0.0,3.0,61,0.00,,,0.00,367.0,meteohub,2013-05-17 14:07:00,
2013-05-17 10:12:00,71.2,56.1,29.99,ENE,71,1.0,3.0,59,0.00,,,0.00,362.0,meteohub,2013-05-17 14:12:00,
2013-05-17 10:17:00,71.4,56.8,29.99,NE,54,0.0,3.0,60,0.00,,,0.00,489.0,meteohub,2013-05-17 14:17:00,
2013-05-17 10:22:00,72.1,57.0,29.99,ENE,67,1.0,3.0,59,0.00,,,0.00,694.0,meteohub,2013-05-17 14:22:00,
2013-05-17 10:27:00,72.5,57.4,29.99,SW,214,0.0,3.0,59,0.00,,,0.00,635.0,meteohub,2013-05-17 14:27:00,
2013-05-17 10:32:00,73.0,58.8,30.00,ENE,69,0.0,4.0,61,0.00,,,0.00,287.0,meteohub,2013-05-17 14:32:00,
2013-05-17 10:37:00,73.6,59.4,30.00,East,92,0.0,4.0,61,0.00,,,0.00,708.0,meteohub,2013-05-17 14:37:00,
2013-05-17 10:42:00,73.8,59.5,30.00,East,96,1.0,4.0,61,0.00,,,0.00,696.0,meteohub,2013-05-17 14:42:00,
2013-05-17 10:47:00,73.2,60.8,30.00,East,86,0.0,4.0,65,0.00,,,0.00,807.0,meteohub,2013-05-17 14:47:00,
2013-05-17 10:52:00,73.6,63.1,30.00,East,82,0.0,3.0,70,0.00,,,0.00,789.0,meteohub,2013-05-17 14:52:00,
2013-05-17 10:57:00,74.3,63.9,30.00,East,101,0.0,3.0,70,0.00,,,0.00,780.0,meteohub,2013-05-17 14:57:00,
2013-05-17 11:02:00,74.8,63.1,30.00,East,85,0.0,4.0,67,0.00,,,0.00,893.0,meteohub,2013-05-17 15:02:00,
2013-05-17 11:07:00,75.0,63.3,30.00,ENE,70,1.0,4.0,67,0.00,,,0.00,881.0,meteohub,2013-05-17 15:07:00,
2013-05-17 11:12:00,75.0,64.2,30.00,SE,133,0.0,4.0,69,0.00,,,0.00,803.0,meteohub,2013-05-17 15:12:00,
2013-05-17 11:17:00,75.9,63.7,30.00,East,86,0.0,4.0,66,0.00,,,0.00,863.0,meteohub,2013-05-17 15:17:00,
2013-05-17 11:22:00,76.5,63.9,30.00,East,82,1.0,4.0,65,0.00,,,0.00,881.0,meteohub,2013-05-17 15:22:00,
2013-05-17 11:27:00,76.6,64.0,30.00,East,90,1.0,4.0,65,0.00,,,0.00,907.0,meteohub,2013-05-17 15:27:00,
2013-05-17 11:32:00,76.6,61.7,30.00,SE,128,1.0,4.0,60,0.00,,,0.00,810.0,meteohub,2013-05-17 15:32:00,
2013-05-17 11:37:00,76.6,63.1,30.00,ESE,103,0.0,5.0,63,0.00,,,0.00,860.0,meteohub,2013-05-17 15:37:00,
2013-05-17 11:42:00,75.9,60.1,30.00,East,90,1.0,5.0,58,0.00,,,0.00,895.0,meteohub,2013-05-17 15:42:00,
2013-05-17 11:47:00,75.9,62.8,30.00,SE,140,4.0,5.0,64,0.00,,,0.00,276.0,meteohub,2013-05-17 15:47:00,
2013-05-17 11:52:00,75.6,61.2,30.00,East,98,0.0,5.0,61,0.00,,,0.00,691.0,meteohub,2013-05-17 15:52:00,
2013-05-17 11:57:00,75.4,63.1,30.00,East,89,1.0,5.0,66,0.00,,,0.00,691.0,meteohub,2013-05-17 15:57:00,
2013-05-17 12:02:00,75.4,61.5,30.00,ENE,73,0.0,4.0,62,0.00,,,0.00,900.0,meteohub,2013-05-17 16:02:00,
2013-05-17 12:07:00,76.1,62.6,30.00,East,84,0.0,3.0,63,0.00,,,0.00,705.0,meteohub,2013-05-17 16:07:00,
2013-05-17 12:12:00,76.5,62.1,30.00,East,86,0.0,3.0,61,0.00,,,0.00,708.0,meteohub,2013-05-17 16:12:00,
2013-05-17 12:17:00,75.9,62.4,30.00,East,86,1.0,4.0,63,0.00,,,0.00,471.0,meteohub,2013-05-17 16:17:00,
2013-05-17 12:22:00,76.5,62.4,29.99,East,100,0.0,4.0,62,0.00,,,0.00,798.0,meteohub,2013-05-17 16:22:00,
2013-05-17 12:27:00,76.6,61.7,29.99,SE,128,0.0,5.0,60,0.00,,,0.00,596.0,meteohub,2013-05-17 16:27:00,
2013-05-17 12:32:00,76.3,62.8,29.99,East,96,1.0,6.0,63,0.00,,,0.00,399.0,meteohub,2013-05-17 16:32:00,
2013-05-17 12:37:00,76.1,62.1,29.99,ESE,109,0.0,6.0,62,0.00,,,0.00,336.0,meteohub,2013-05-17 16:37:00,
2013-05-17 12:42:00,75.9,61.9,29.99,ESE,112,1.0,6.0,62,0.00,,,0.00,756.0,meteohub,2013-05-17 16:42:00,
2013-05-17 12:47:00,76.1,63.9,29.99,East,101,0.0,4.0,66,0.00,,,0.00,863.0,meteohub,2013-05-17 16:47:00,
2013-05-17 12:52:00,77.0,63.5,29.99,South,175,1.0,4.0,63,0.00,,,0.00,916.0,meteohub,2013-05-17 16:52:00,
2013-05-17 12:57:00,77.7,61.3,29.99,East,86,0.0,4.0,57,0.00,,,0.00,838.0,meteohub,2013-05-17 16:57:00,
2013-05-17 13:02:00,77.7,61.3,29.99,SSE,152,1.0,4.0,57,0.00,,,0.00,733.0,meteohub,2013-05-17 17:02:00,
2013-05-17 13:07:00,77.5,61.2,29.99,East,101,0.0,4.0,57,0.00,,,0.00,838.0,meteohub,2013-05-17 17:07:00,
2013-05-17 13:12:00,77.4,60.4,29.99,SSE,157,0.0,4.0,56,0.00,,,0.00,742.0,meteohub,2013-05-17 17:12:00,
2013-05-17 13:17:00,77.5,61.5,29.99,ESE,103,1.0,4.0,58,0.00,,,0.00,912.0,meteohub,2013-05-17 17:17:00,
2013-05-17 13:22:00,77.7,59.7,29.98,ESE,109,0.0,5.0,54,0.00,,,0.00,990.0,meteohub,2013-05-17 17:22:00,
2013-05-17 13:27:00,78.4,62.4,29.98,ESE,109,0.0,5.0,58,0.00,,,0.00,895.0,meteohub,2013-05-17 17:27:00,
2013-05-17 13:32:00,79.0,59.9,29.98,ESE,117,2.0,5.0,52,0.00,,,0.00,956.0,meteohub,2013-05-17 17:32:00,
2013-05-17 13:37:00,79.2,60.1,29.98,East,88,0.0,6.0,52,0.00,,,0.00,995.0,meteohub,2013-05-17 17:37:00,
2013-05-17 13:42:00,78.8,60.3,29.98,SE,144,1.0,6.0,53,0.00,,,0.00,954.0,meteohub,2013-05-17 17:42:00,
2013-05-17 13:47:00,78.8,60.3,29.98,East,84,0.0,5.0,53,0.00,,,0.00,979.0,meteohub,2013-05-17 17:47:00,
2013-05-17 13:52:00,79.2,62.1,29.98,South,178,0.0,5.0,56,0.00,,,0.00,905.0,meteohub,2013-05-17 17:52:00,
2013-05-17 13:57:00,79.3,62.2,29.98,East,99,0.0,5.0,56,0.00,,,0.00,325.0,meteohub,2013-05-17 17:57:00,
2013-05-17 14:02:00,78.4,63.0,29.98,SE,136,1.0,4.0,59,0.00,,,0.00,258.0,meteohub,2013-05-17 18:02:00,
2013-05-17 14:07:00,77.5,62.1,29.98,East,81,1.0,4.0,59,0.00,,,0.00,410.0,meteohub,2013-05-17 18:07:00,
2013-05-17 14:12:00,77.2,62.6,29.98,SE,134,1.0,4.0,61,0.00,,,0.00,559.0,meteohub,2013-05-17 18:12:00,
2013-05-17 14:17:00,77.4,62.4,29.98,ESE,123,0.0,4.0,60,0.00,,,0.00,555.0,meteohub,2013-05-17 18:17:00,
2013-05-17 14:22:00,77.2,61.3,29.98,ENE,69,0.0,4.0,58,0.00,,,0.00,464.0,meteohub,2013-05-17 18:22:00,
2013-05-17 14:27:00,76.8,61.9,29.98,South,172,0.0,4.0,60,0.00,,,0.00,471.0,meteohub,2013-05-17 18:27:00,
2013-05-17 14:32:00,76.6,62.2,29.98,SSE,161,1.0,4.0,61,0.00,,,0.00,415.0,meteohub,2013-05-17 18:32:00,
2013-05-17 14:37:00,76.3,61.9,29.98,East,90,0.0,2.0,61,0.00,,,0.00,454.0,meteohub,2013-05-17 18:37:00,
2013-05-17 14:42:00,76.5,62.4,29.98,SSE,159,4.0,4.0,62,0.00,,,0.00,599.0,meteohub,2013-05-17 18:42:00,
2013-05-17 14:47:00,76.6,62.6,29.98,ESE,123,0.0,4.0,62,0.00,,,0.00,527.0,meteohub,2013-05-17 18:47:00,
2013-05-17 14:52:00,76.6,62.2,29.98,ESE,108,1.0,4.0,61,0.00,,,0.00,591.0,meteohub,2013-05-17 18:52:00,
2013-05-17 14:57:00,76.8,62.4,29.97,SSE,147,1.0,4.0,61,0.00,,,0.00,517.0,meteohub,2013-05-17 18:57:00,
2013-05-17 15:02:00,76.8,61.9,29.97,ESE,106,0.0,4.0,60,0.00,,,0.00,636.0,meteohub,2013-05-17 19:02:00,
2013-05-17 15:07:00,76.6,61.2,29.97,SE,134,1.0,4.0,59,0.00,,,0.00,497.0,meteohub,2013-05-17 19:07:00,
2013-05-17 15:12:00,76.6,61.7,29.97,SE,138,2.0,5.0,60,0.00,,,0.00,524.0,meteohub,2013-05-17 19:12:00,
2013-05-17 15:17:00,76.5,60.6,29.96,ESE,123,1.0,5.0,58,0.00,,,0.00,670.0,meteohub,2013-05-17 19:17:00,
2013-05-17 15:22:00,76.6,62.2,29.96,East,98,0.0,4.0,61,0.00,,,0.00,1069.0,meteohub,2013-05-17 19:22:00,
2013-05-17 15:27:00,77.2,61.3,29.96,SSE,150,0.0,4.0,58,0.00,,,0.00,297.0,meteohub,2013-05-17 19:27:00,
2013-05-17 15:34:00,77.7,62.8,29.96,SSE,161,2.0,2.0,60,0.00,,,0.00,893.0,meteohub,2013-05-17 19:34:00,
2013-05-17 15:40:00,78.4,61.5,29.96,SW,236,0.0,2.0,56,0.00,,,0.00,925.0,meteohub,2013-05-17 19:40:00,
2013-05-17 15:46:00,78.3,60.3,29.96,East,99,2.0,4.0,54,0.00,,,0.00,269.0,meteohub,2013-05-17 19:46:00,
2013-05-17 15:52:00,77.7,60.8,29.96,SE,127,1.0,4.0,56,0.00,,,0.00,759.0,meteohub,2013-05-17 19:52:00,
2013-05-17 15:57:00,77.9,60.4,29.96,East,90,1.0,4.0,55,0.00,,,0.00,886.0,meteohub,2013-05-17 19:57:00,
2013-05-17 16:02:00,77.7,59.7,29.96,East,96,0.0,4.0,54,0.00,,,0.00,431.0,meteohub,2013-05-17 20:02:00,
2013-05-17 16:07:00,77.2,60.8,29.96,ESE,110,1.0,4.0,57,0.00,,,0.00,689.0,meteohub,2013-05-17 20:07:00,
2013-05-17 16:12:00,77.0,59.5,29.95,NNW,336,0.0,4.0,55,0.00,,,0.00,629.0,meteohub,2013-05-17 20:12:00,
2013-05-17 16:17:00,76.6,58.3,29.95,South,178,0.0,4.0,53,0.00,,,0.00,587.0,meteohub,2013-05-17 20:17:00,
2013-05-17 16:22:00,76.6,59.2,29.95,East,92,0.0,4.0,55,0.00,,,0.00,232.0,meteohub,2013-05-17 20:22:00,
2013-05-17 16:27:00,76.6,59.2,29.95,SSE,163,2.0,3.0,55,0.00,,,0.00,396.0,meteohub,2013-05-17 20:27:00,
2013-05-17 16:32:00,76.3,59.4,29.95,SSW,213,0.0,4.0,56,0.00,,,0.00,197.0,meteohub,2013-05-17 20:32:00,
2013-05-17 16:37:00,75.7,60.4,29.95,SSE,163,0.0,4.0,59,0.00,,,0.00,176.0,meteohub,2013-05-17 20:37:00,
2013-05-17 16:42:00,75.0,58.3,29.95,SSE,161,1.0,4.0,56,0.00,,,0.00,327.0,meteohub,2013-05-17 20:42:00,
2013-05-17 16:47:00,74.7,58.5,29.94,South,187,1.0,4.0,57,0.00,,,0.00,380.0,meteohub,2013-05-17 20:47:00,
2013-05-17 16:52:00,74.5,59.2,29.94,South,187,0.0,4.0,59,0.00,,,0.00,320.0,meteohub,2013-05-17 20:52:00,
2013-05-17 16:57:00,74.7,58.5,29.95,SSE,167,0.0,4.0,57,0.00,,,0.00,406.0,meteohub,2013-05-17 20:57:00,
2013-05-17 17:02:00,75.0,59.2,29.95,SSE,165,0.0,2.0,58,0.00,,,0.00,582.0,meteohub,2013-05-17 21:02:00,
2013-05-17 17:07:00,75.0,59.2,29.94,South,169,1.0,2.0,58,0.00,,,0.00,302.0,meteohub,2013-05-17 21:07:00,
2013-05-17 17:12:00,75.2,60.8,29.95,North,11,1.0,2.0,61,0.00,,,0.00,279.0,meteohub,2013-05-17 21:12:00,
2013-05-17 17:17:00,75.4,59.5,29.94,South,169,0.0,2.0,58,0.00,,,0.00,464.0,meteohub,2013-05-17 21:17:00,
2013-05-17 17:22:00,75.2,59.0,29.95,SSW,192,1.0,2.0,57,0.00,,,0.00,118.0,meteohub,2013-05-17 21:22:00,
2013-05-17 17:27:00,74.8,59.5,29.94,SSE,167,0.0,2.0,59,0.00,,,0.00,487.0,meteohub,2013-05-17 21:27:00,
2013-05-17 17:32:00,74.7,59.4,29.95,South,170,0.0,2.0,59,0.00,,,0.00,497.0,meteohub,2013-05-17 21:32:00,
2013-05-17 17:37:00,74.5,59.7,29.94,South,170,0.0,2.0,60,0.00,,,0.00,178.0,meteohub,2013-05-17 21:37:00,
2013-05-17 17:42:00,74.1,59.7,29.95,South,170,0.0,2.0,61,0.00,,,0.00,139.0,meteohub,2013-05-17 21:42:00,
2013-05-17 17:47:00,73.9,60.1,29.95,SSE,168,0.0,2.0,62,0.00,,,0.00,352.0,meteohub,2013-05-17 21:47:00,
2013-05-17 17:52:00,73.9,60.1,29.95,SSE,163,0.0,2.0,62,0.00,,,0.00,439.0,meteohub,2013-05-17 21:52:00,
2013-05-17 17:57:00,73.8,59.5,29.95,South,183,0.0,2.0,61,0.00,,,0.00,104.0,meteohub,2013-05-17 21:57:00,
2013-05-17 18:02:00,73.6,59.7,29.95,South,173,0.0,2.0,62,0.00,,,0.00,334.0,meteohub,2013-05-17 22:02:00,
2013-05-17 18:07:00,73.2,59.0,29.95,South,173,0.0,2.0,61,0.00,,,0.00,383.0,meteohub,2013-05-17 22:07:00,
2013-05-17 18:12:00,73.2,59.9,29.95,ESE,105,0.0,2.0,63,0.00,,,0.00,223.0,meteohub,2013-05-17 22:12:00,
2013-05-17 18:17:00,73.2,59.9,29.94,SSE,167,0.0,4.0,63,0.00,,,0.00,137.0,meteohub,2013-05-17 22:17:00,
2013-05-17 18:22:00,73.0,60.6,29.94,SSE,150,0.0,4.0,65,0.00,,,0.00,120.0,meteohub,2013-05-17 22:22:00,
2013-05-17 18:27:00,72.9,60.4,29.94,SE,134,0.0,4.0,65,0.00,,,0.00,90.0,meteohub,2013-05-17 22:27:00,
2013-05-17 18:32:00,72.3,59.9,29.94,South,175,0.0,2.0,65,0.00,,,0.00,67.0,meteohub,2013-05-17 22:32:00,
2013-05-17 18:37:00,72.0,59.9,29.94,South,170,1.0,2.0,66,0.00,,,0.00,53.0,meteohub,2013-05-17 22:37:00,
2013-05-17 18:42:00,71.4,59.5,29.94,ESE,120,0.0,2.0,66,0.00,,,0.00,53.0,meteohub,2013-05-17 22:42:00,
2013-05-17 18:47:00,71.1,59.5,29.94,SSE,155,0.0,2.0,67,0.00,,,0.00,40.0,meteohub,2013-05-17 22:47:00,
2013-05-17 18:52:00,70.9,59.7,29.94,SSE,155,0.0,2.0,68,0.00,,,0.00,46.0,meteohub,2013-05-17 22:52:00,
2013-05-17 18:57:00,70.5,59.9,29.94,SSE,155,0.0,1.0,69,0.00,,,0.00,42.0,meteohub,2013-05-17 22:57:00,
2013-05-17 19:02:00,70.2,59.5,29.94,SSE,155,0.0,1.0,69,0.00,,,0.00,44.0,meteohub,2013-05-17 23:02:00,
2013-05-17 19:07:00,70.0,59.4,29.94,SSE,155,0.0,1.0,69,0.00,,,0.00,49.0,meteohub,2013-05-17 23:07:00,
2013-05-17 19:12:00,69.8,59.2,29.94,SSE,155,0.0,1.0,69,0.00,,,0.00,54.0,meteohub,2013-05-17 23:12:00,
2013-05-17 19:17:00,69.6,59.0,29.94,SSE,155,0.0,1.0,69,0.00,,,0.00,54.0,meteohub,2013-05-17 23:17:00,
2013-05-17 19:22:00,69.4,59.2,29.95,SSE,155,0.0,1.0,70,0.00,,,0.00,54.0,meteohub,2013-05-17 23:22:00,
2013-05-17 19:27:00,69.3,59.0,29.95,SSE,155,0.0,1.0,70,0.00,,,0.00,54.0,meteohub,2013-05-17 23:27:00,
2013-05-17 19:32:00,69.3,59.5,29.95,SSE,155,0.0,1.0,71,0.00,,,0.00,53.0,meteohub,2013-05-17 23:32:00,
2013-05-17 19:37:00,69.1,58.8,29.95,SSE,155,0.0,1.0,70,0.00,,,0.00,49.0,meteohub,2013-05-17 23:37:00,
2013-05-17 19:42:00,68.9,58.3,29.95,North,355,0.0,1.0,69,0.00,,,0.00,42.0,meteohub,2013-05-17 23:42:00,
2013-05-17 19:47:00,68.9,58.3,29.96,North,5,0.0,4.0,69,0.00,,,0.00,37.0,meteohub,2013-05-17 23:47:00,
2013-05-17 19:52:00,68.7,58.5,29.96,West,264,0.0,4.0,70,0.00,,,0.00,32.0,meteohub,2013-05-17 23:52:00,
2013-05-17 19:57:00,68.5,58.3,29.96,North,10,0.0,4.0,70,0.00,,,0.00,26.0,meteohub,2013-05-17 23:57:00,
2013-05-17 20:02:00,68.4,57.7,29.96,NNE,14,0.0,2.0,69,0.00,,,0.00,21.0,meteohub,2013-05-18 00:02:00,
2013-05-17 20:07:00,68.2,57.6,29.96,NNE,17,0.0,2.0,69,0.00,,,0.00,18.0,meteohub,2013-05-18 00:07:00,
2013-05-17 20:12:00,68.0,57.0,29.96,NNW,338,0.0,2.0,68,0.00,,,0.00,12.0,meteohub,2013-05-18 00:12:00,
2013-05-17 20:17:00,67.8,56.8,29.96,SSE,161,0.0,6.0,68,0.00,,,0.00,9.0,meteohub,2013-05-18 00:17:00,
2013-05-17 20:22:00,67.6,57.0,29.96,SE,129,0.0,6.0,69,0.00,,,0.00,5.0,meteohub,2013-05-18 00:22:00,
2013-05-17 20:27:00,67.5,57.0,29.96,ESE,119,0.0,6.0,69,0.00,,,0.00,0.0,meteohub,2013-05-18 00:27:00,
2013-05-17 20:32:00,67.5,57.0,29.96,SE,142,0.0,3.0,69,0.00,,,0.00,0.0,meteohub,2013-05-18 00:32:00,
2013-05-17 20:37:00,67.5,57.0,29.96,SE,144,0.0,3.0,69,0.00,,,0.00,0.0,meteohub,2013-05-18 00:37:00,
2013-05-17 20:42:00,67.3,56.8,29.97,East,92,0.0,2.0,69,0.00,,,0.00,0.0,meteohub,2013-05-18 00:42:00,
2013-05-17 20:47:00,67.3,55.9,29.97,SE,141,0.0,2.0,67,0.00,,,0.00,0.0,meteohub,2013-05-18 00:47:00,
2013-05-17 20:52:00,67.3,55.9,29.97,SE,134,1.0,2.0,67,0.00,,,0.00,0.0,meteohub,2013-05-18 00:52:00,
2013-05-17 20:57:00,67.3,55.6,29.97,NNE,15,2.0,3.0,66,0.00,,,0.00,0.0,meteohub,2013-05-18 00:57:00,
2013-05-17 21:02:00,67.3,55.0,29.97,South,184,0.0,4.0,65,0.00,,,0.00,0.0,meteohub,2013-05-18 01:02:00,
2013-05-17 21:07:00,67.3,55.0,29.97,NNE,26,1.0,4.0,65,0.00,,,0.00,0.0,meteohub,2013-05-18 01:07:00,
2013-05-17 21:12:00,67.3,55.0,29.97,NNE,32,0.0,4.0,65,0.00,,,0.00,0.0,meteohub,2013-05-18 01:12:00,
2013-05-17 21:17:00,67.3,55.0,29.97,West,277,0.0,4.0,65,0.00,,,0.00,0.0,meteohub,2013-05-18 01:17:00,
2013-05-17 21:22:00,67.5,55.2,29.97,East,98,1.0,2.0,65,0.00,,,0.00,0.0,meteohub,2013-05-18 01:22:00,
2013-05-17 21:27:00,67.5,55.8,29.97,NNE,28,0.0,9.0,66,0.00,,,0.00,0.0,meteohub,2013-05-18 01:27:00,
2013-05-17 21:32:00,67.5,55.8,29.97,North,5,1.0,9.0,66,0.00,,,0.00,0.0,meteohub,2013-05-18 01:32:00,
2013-05-17 21:37:00,67.5,56.1,29.97,North,5,0.0,5.0,67,0.00,,,0.00,0.0,meteohub,2013-05-18 01:37:00,
2013-05-17 21:42:00,67.5,56.5,29.97,South,189,0.0,5.0,68,0.00,,,0.00,0.0,meteohub,2013-05-18 01:42:00,
2013-05-17 21:47:00,67.3,56.3,29.97,NNE,14,0.0,3.0,68,0.00,,,0.00,0.0,meteohub,2013-05-18 01:47:00,
2013-05-17 21:52:00,67.3,56.3,29.97,NNE,12,0.0,2.0,68,0.00,,,0.00,0.0,meteohub,2013-05-18 01:52:00,
2013-05-17 21:57:00,67.3,56.3,29.97,NE,44,0.0,4.0,68,0.00,,,0.00,0.0,meteohub,2013-05-18 01:57:00,
2013-05-17 22:03:00,67.3,56.3,29.98,NE,44,0.0,4.0,68,0.00,,,0.00,0.0,meteohub,2013-05-18 02:03:00,
2013-05-17 22:09:00,67.3,56.8,29.98,NE,44,0.0,4.0,69,0.00,,,0.00,0.0,meteohub,2013-05-18 02:09:00,
2013-05-17 22:15:00,67.1,56.7,29.98,SW,221,0.0,1.0,69,0.00,,,0.00,0.0,meteohub,2013-05-18 02:15:00,
2013-05-17 22:21:00,66.9,57.2,29.98,West,265,0.0,2.0,71,0.00,,,0.00,0.0,meteohub,2013-05-18 02:21:00,
2013-05-17 22:27:00,66.9,56.8,29.98,West,265,0.0,2.0,70,0.00,,,0.00,0.0,meteohub,2013-05-18 02:27:00,
2013-05-17 22:32:00,66.7,57.4,29.98,WSW,242,0.0,2.0,72,0.00,,,0.00,0.0,meteohub,2013-05-18 02:32:00,
2013-05-17 22:37:00,66.6,57.2,29.98,WSW,242,0.0,2.0,72,0.00,,,0.00,0.0,meteohub,2013-05-18 02:37:00,
2013-05-17 22:42:00,66.4,57.4,29.99,WSW,242,0.0,2.0,73,0.00,,,0.00,0.0,meteohub,2013-05-18 02:42:00,
2013-05-17 22:47:00,66.0,57.6,29.99,North,350,0.0,2.0,74,0.00,,,0.00,0.0,meteohub,2013-05-18 02:47:00,
2013-05-17 22:52:00,65.8,57.4,29.99,North,350,0.0,2.0,74,0.00,,,0.00,0.0,meteohub,2013-05-18 02:52:00,
2013-05-17 22:57:00,65.8,57.4,29.99,North,350,0.0,2.0,74,0.00,,,0.00,0.0,meteohub,2013-05-18 02:57:00,
2013-05-17 23:02:00,65.7,57.6,29.99,North,350,0.0,1.0,75,0.00,,,0.00,0.0,meteohub,2013-05-18 03:02:00,
2013-05-17 23:07:00,65.5,57.0,29.99,North,350,0.0,1.0,74,0.00,,,0.00,0.0,meteohub,2013-05-18 03:07:00,
2013-05-17 23:12:00,65.5,57.4,29.99,North,350,0.0,1.0,75,0.00,,,0.00,0.0,meteohub,2013-05-18 03:12:00,
2013-05-17 23:17:00,65.5,57.7,29.99,North,350,0.0,0.0,76,0.00,,,0.00,0.0,meteohub,2013-05-18 03:17:00,
2013-05-17 23:22:00,65.3,57.2,29.99,North,350,0.0,0.0,75,0.00,,,0.00,0.0,meteohub,2013-05-18 03:22:00,
2013-05-17 23:27:00,65.1,57.4,29.99,North,350,0.0,0.0,76,0.00,,,0.00,0.0,meteohub,2013-05-18 03:27:00,
2013-05-17 23:32:00,65.1,57.4,29.99,North,350,0.0,0.0,76,0.00,,,0.00,0.0,meteohub,2013-05-18 03:32:00,
2013-05-17 23:37:00,64.9,57.2,29.99,North,350,0.0,1.0,76,0.00,,,0.00,0.0,meteohub,2013-05-18 03:37:00,
2013-05-17 23:42:00,64.9,57.6,29.99,North,350,0.0,1.0,77,0.00,,,0.00,0.0,meteohub,2013-05-18 03:42:00,
2013-05-17 23:47:00,64.9,57.6,29.99,North,350,0.0,1.0,77,0.00,,,0.00,0.0,meteohub,2013-05-18 03:47:00,
2013-05-17 23:52:00,64.9,57.6,29.99,North,350,0.0,1.0,77,0.00,,,0.00,0.0,meteohub,2013-05-18 03:52:00,
2013-05-17 23:57:00,64.9,57.6,29.99,North,350,0.0,1.0,77,0.00,,,0.00,0.0,meteohub,2013-05-18 03:57:00,